Ukiah, CA

1:19 AM PST on February 13, 2016 (GMT -0800)
Ukiah Municipal

Weather History for KUKI - January, 2013

Change the Weather History Date:

Tuesday, January 22, 2013

  Actual Average Record
Temperature  
Mean Temperature 44 °F 47 °F  
Max Temperature 60 °F 57 °F 78 °F (1934)
Min Temperature 27 °F 37 °F 19 °F (1937)
Degree Days  
Heating Degree Days 21 18  
Month to date heating degree days 483 412  
Since 1 July heating degree days 1523 1642  
Cooling Degree Days 0 0  
Month to date cooling degree days 0 0  
Year to date cooling degree days 0 0  
Moisture  
Dew Point 32 °F    
Average Humidity 61    
Maximum Humidity 92    
Minimum Humidity 29    
Precipitation  
Precipitation 0.00 in 0.14 in 2.32 in (1997)
Month to date precipitation 0.81 5.99  
Year to date precipitation 0.81 5.99  
Since 1 July precipitation 23.51  
Snow  
Snow 0.00 in - - ()
Month to date snowfall 0.0  
Since 1 July snowfall 0.0  
Snow Depth 0.00 in    
Sea Level Pressure  
Sea Level Pressure 30.07 in    
Wind  
Wind Speed 0 mph (North)    
Max Wind Speed 5 mph    
Max Gust Speed 13 mph    
Visibility 10 miles    
Events      
T = Trace of Precipitation, MM = Missing Value Source: NWS Daily Summary

Daily Weather History Graph

Daily Weather History Graph

Search for Another Location

Airport or City:

Trip Planner

Search our weather history database for the weather conditions in past years. The results will help you decide how hot, cold, wet, or windy it might be!

Date:

Astronomy

Jan. 22, 2013 Rise Set
Actual Time 7:26 AM PST 5:22 PM PST
Civil Twilight 6:58 AM PST 5:51 PM PST
Nautical Twilight 6:25 AM PST 6:23 PM PST
Astronomical Twilight 5:53 AM PST 6:55 PM PST
Moon 1:50 PM PST (1/22) 3:52 AM PST (1/22)
Length of Visible Light 10h 53m
Length of Day
9h 55m
Waxing Gibbous, 83% of the Moon is Illuminated
Jan 22
Waxing Gibbous
Jan 26
Full
Feb 3
Last Quarter
Feb 9
New
Feb 17
First Quarter

Hourly Weather History & Observations

Time (PST) Temp. Dew Point Humidity Pressure Visibility Wind Dir Wind Speed Gust Speed Precip Events Conditions
12:56 AM 32.0 °F 28.9 °F 88% 30.13 in 10.0 mi Calm Calm - N/A   Clear
1:56 AM 32.0 °F 28.0 °F 85% 30.13 in 10.0 mi Calm Calm - N/A   Clear
2:56 AM 32.0 °F 28.9 °F 88% 30.12 in 10.0 mi Calm Calm - N/A   Clear
3:56 AM 30.9 °F 28.0 °F 89% 30.11 in 10.0 mi Calm Calm - N/A   Clear
4:56 AM 30.9 °F 28.0 °F 89% 30.11 in 10.0 mi Calm Calm - N/A   Clear
5:56 AM 30.0 °F 27.0 °F 88% 30.11 in 10.0 mi Calm Calm - N/A   Clear
6:56 AM 28.9 °F 27.0 °F 92% 30.11 in 8.0 mi Calm Calm - N/A   Clear
7:56 AM 28.0 °F 26.1 °F 92% 30.12 in 10.0 mi Calm Calm - N/A   Clear
8:56 AM 30.9 °F 28.9 °F 92% 30.13 in 10.0 mi Calm Calm - N/A   Clear
9:56 AM 37.9 °F 32.0 °F 79% 30.14 in 10.0 mi Calm Calm - N/A   Clear
10:56 AM 42.1 °F 33.1 °F 70% 30.14 in 10.0 mi Calm Calm - N/A   Clear
11:56 AM 48.9 °F 33.1 °F 54% 30.10 in 10.0 mi Calm Calm - N/A   Clear
12:56 PM 54.0 °F 32.0 °F 43% 30.06 in 10.0 mi Calm Calm - N/A   Clear
1:56 PM 60.1 °F 28.0 °F 30% 30.02 in 10.0 mi Calm Calm - N/A   Clear
2:56 PM 60.1 °F 30.0 °F 32% 30.01 in 10.0 mi Calm Calm - N/A   Clear
3:56 PM 57.9 °F 34.0 °F 41% 29.99 in 10.0 mi Calm Calm - N/A   Clear
4:56 PM 55.0 °F 39.9 °F 57% 29.98 in 9.0 mi Calm Calm - N/A   Clear
5:56 PM 52.0 °F 37.9 °F 59% 29.99 in 10.0 mi Calm Calm - N/A   Clear
6:56 PM 48.0 °F 37.9 °F 68% 30.01 in 10.0 mi Calm Calm - N/A   Clear
7:56 PM 46.0 °F 37.0 °F 71% 30.00 in 10.0 mi Calm Calm - N/A   Clear
8:56 PM 46.0 °F 37.0 °F 71% 30.02 in 10.0 mi Calm Calm - N/A   Clear
9:56 PM 43.0 °F 37.0 °F 80% 30.03 in 10.0 mi Calm Calm - N/A   Clear
10:56 PM 43.0 °F 37.0 °F 80% 30.03 in 10.0 mi Calm Calm - N/A   Clear
11:56 PM 41.0 °F 36.0 °F 82% 30.02 in 10.0 mi Calm Calm - N/A   Clear